| time (UTC) | temp C | wind direction | speed KPH | gust KPH | rain 1hr cm | rain 24hr cm | rain mn cm | humidity % | barometer mb |
| 20260504024801 | 12 | 140 | 3.2 | 3.2 | 0.00 | 0.00 | 0.00 | 53 | 1048.6 |
| 20260504024258 | 12 | 169 | 4.8 | 6.4 | 0.00 | 0.00 | 0.00 | 52 | 1048.4 |
| 20260504023755 | 12 | 166 | 4.8 | 4.8 | 0.00 | 0.00 | 0.00 | 53 | 1048.5 |
| 20260504023251 | 12 | 139 | 3.2 | 3.2 | 0.00 | 0.00 | 0.00 | 54 | 1048.6 |
| 20260504022747 | 11 | 136 | 1.6 | 4.8 | 0.00 | 0.00 | 0.00 | 54 | 1048.6 |
| 20260504022243 | 11 | 113 | 3.2 | 4.8 | 0.00 | 0.00 | 0.00 | 60 | 1048.6 |
| 20260504021740 | 11 | 115 | 3.2 | 3.2 | 0.00 | 0.00 | 0.00 | 60 | 1048.6 |
| 20260504021238 | 11 | 155 | 0.0 | 1.6 | 0.00 | 0.00 | 0.00 | 59 | 1048.8 |
| 20260504020734 | 11 | 155 | 0.0 | 0.0 | 0.00 | 0.00 | 0.00 | 60 | 1048.7 |
| 20260504020231 | 11 | 155 | 0.0 | 0.0 | 0.00 | 0.00 | 0.00 | 61 | 1048.6 |
| 20260504015727 | 11 | 155 | 0.0 | 0.0 | 0.00 | 0.00 | 0.00 | 58 | 1048.6 |
| 20260504015224 | 11 | 155 | 0.0 | 0.0 | 0.00 | 0.00 | 0.00 | 56 | 1048.7 |
| 20260504014720 | 12 | 155 | 0.0 | 0.0 | 0.00 | 0.00 | 0.00 | 56 | 1048.1 |
| 20260504014217 | 12 | 155 | 0.0 | 0.0 | 0.00 | 0.00 | 0.00 | 53 | 1048.4 |
| 20260504013714 | 12 | 155 | 0.0 | 0.0 | 0.00 | 0.00 | 0.00 | 55 | 1048.3 |
| 20260504013211 | 12 | 155 | 0.0 | 0.0 | 0.00 | 0.00 | 0.00 | 51 | 1048.2 |
| 20260504012708 | 12 | 155 | 0.0 | 1.6 | 0.00 | 0.00 | 0.00 | 51 | 1048.0 |
| 20260504012206 | 13 | 155 | 0.0 | 0.0 | 0.00 | 0.00 | 0.00 | 52 | 1048.1 |
| 20260504011703 | 13 | 155 | 1.6 | 1.6 | 0.00 | 0.00 | 0.00 | 51 | 1048.1 |
| 20260504011159 | 13 | 155 | 1.6 | 3.2 | 0.00 | 0.00 | 0.00 | 51 | 1047.9 |
| 20260504010655 | 13 | 153 | 3.2 | 3.2 | 0.00 | 0.00 | 0.00 | 53 | 1047.9 |
| 20260504010151 | 13 | 174 | 1.6 | 3.2 | 0.00 | 0.00 | 0.00 | 51 | 1047.8 |
| 20260504005648 | 13 | 176 | 3.2 | 3.2 | 0.00 | 0.00 | 0.00 | 52 | 1047.7 |
| 20260504005145 | 13 | 160 | 1.6 | 3.2 | 0.00 | 0.00 | 0.00 | 51 | 1047.9 |
| 20260504004643 | 13 | 177 | 1.6 | 1.6 | 0.00 | 0.00 | 0.00 | 49 | 1047.9 |
| 20260504004140 | 13 | 147 | 3.2 | 4.8 | 0.00 | 0.00 | 0.00 | 49 | 1047.7 |
| 20260504003636 | 13 | 162 | 3.2 | 4.8 | 0.00 | 0.00 | 0.00 | 47 | 1047.6 |
| 20260504003133 | 14 | 181 | 1.6 | 3.2 | 0.00 | 0.00 | 0.00 | 48 | 1047.6 |
| 20260504002629 | 14 | 172 | 6.4 | 6.4 | 0.00 | 0.00 | 0.00 | 45 | 1047.4 |
| 20260504002127 | 14 | 174 | 6.4 | 6.4 | 0.00 | 0.00 | 0.00 | 45 | 1047.6 |
| 20260504001625 | 15 | 174 | 4.8 | 4.8 | 0.00 | 0.00 | 0.00 | 45 | 1047.4 |
| 20260504001121 | 15 | 172 | 8.0 | 9.7 | 0.00 | 0.00 | 0.00 | 43 | 1047.6 |
| 20260504000618 | 15 | 209 | 4.8 | 4.8 | 0.00 | 0.00 | 0.00 | 44 | 1047.5 |
| 20260504000116 | 15 | 182 | 6.4 | 6.4 | 0.00 | 0.00 | 0.00 | 42 | 1047.6 |
| 20260503235614 | 15 | 170 | 3.2 | 6.4 | 0.00 | 0.00 | 0.00 | 43 | 1047.8 |
| 20260503235110 | 15 | 146 | 3.2 | 12.9 | 0.00 | 0.00 | 0.00 | 41 | 1047.6 |
| 20260503234608 | 15 | 168 | 4.8 | 9.7 | 0.00 | 0.00 | 0.00 | 42 | 1047.6 |
| 20260503234106 | 16 | 205 | 3.2 | 9.7 | 0.00 | 0.00 | 0.00 | 41 | 1047.6 |
| 20260503233603 | 16 | 200 | 3.2 | 6.4 | 0.00 | 0.00 | 0.00 | 40 | 1048.1 |
| 20260503233058 | 16 | 170 | 8.0 | 12.9 | 0.00 | 0.00 | 0.00 | 36 | 1047.8 |
| 20260503232555 | 16 | 202 | 6.4 | 11.3 | 0.00 | 0.00 | 0.00 | 36 | 1048.1 |
| 20260503232053 | 16 | 147 | 3.2 | 6.4 | 0.00 | 0.00 | 0.00 | 37 | 1048.2 |
| 20260503231550 | 16 | 245 | 6.4 | 12.9 | 0.00 | 0.00 | 0.00 | 37 | 1047.9 |
| 20260503231047 | 16 | 216 | 4.8 | 11.3 | 0.00 | 0.00 | 0.00 | 37 | 1048.2 |
| 20260503230543 | 16 | 240 | 4.8 | 12.9 | 0.00 | 0.00 | 0.00 | 36 | 1048.4 |
| 20260503230041 | 16 | 230 | 1.6 | 6.4 | 0.00 | 0.00 | 0.00 | 38 | 1048.7 |
| 20260503225538 | 16 | 201 | 3.2 | 6.4 | 0.00 | 0.00 | 0.00 | 35 | 1048.4 |
| 20260503225032 | 16 | 219 | 6.4 | 9.7 | 0.00 | 0.00 | 0.00 | 37 | 1048.5 |
| 20260503224530 | 17 | 250 | 6.4 | 12.9 | 0.00 | 0.00 | 0.00 | 34 | 1048.5 |
| 20260503224028 | 17 | 216 | 6.4 | 11.3 | 0.00 | 0.00 | 0.00 | 33 | 1048.5 |
| 20260503223526 | 17 | 227 | 6.4 | 6.4 | 0.00 | 0.00 | 0.00 | 35 | 1048.6 |
| 20260503223021 | 17 | 255 | 6.4 | 11.3 | 0.00 | 0.00 | 0.00 | 35 | 1048.6 |
| 20260503222520 | 17 | 225 | 6.4 | 9.7 | 0.00 | 0.00 | 0.00 | 33 | 1049.0 |
| 20260503222017 | 17 | 232 | 4.8 | 11.3 | 0.00 | 0.00 | 0.00 | 33 | 1048.9 |
| 20260503221515 | 17 | 232 | 9.7 | 12.9 | 0.00 | 0.00 | 0.00 | 32 | 1048.8 |
| 20260503221013 | 17 | 220 | 4.8 | 11.3 | 0.00 | 0.00 | 0.00 | 35 | 1048.8 |
| 20260503220508 | 17 | 234 | 4.8 | 12.9 | 0.00 | 0.00 | 0.00 | 34 | 1048.9 |
| 20260503220005 | 17 | 199 | 6.4 | 12.9 | 0.00 | 0.00 | 0.00 | 34 | 1049.2 |
| 20260503215502 | 17 | 210 | 6.4 | 11.3 | 0.00 | 0.00 | 0.00 | 34 | 1049.2 |
| 20260503214959 | 17 | 230 | 1.6 | 9.7 | 0.00 | 0.00 | 0.00 | 35 | 1049.1 |
| 20260503214458 | 17 | 153 | 4.8 | 11.3 | 0.00 | 0.00 | 0.00 | 32 | 1049.0 |
| 20260503213955 | 17 | 263 | 3.2 | 12.9 | 0.00 | 0.00 | 0.00 | 35 | 1048.7 |
| 20260503213453 | 17 | 209 | 16.1 | 24.1 | 0.00 | 0.00 | 0.00 | 30 | 1048.8 |
| 20260503212949 | 17 | 159 | 8.0 | 14.5 | 0.00 | 0.00 | 0.00 | 32 | 1048.8 |
| 20260503212446 | 17 | 185 | 11.3 | 17.7 | 0.00 | 0.00 | 0.00 | 34 | 1049.1 |
| 20260503211943 | 17 | 214 | 6.4 | 16.1 | 0.00 | 0.00 | 0.00 | 32 | 1049.0 |
| 20260503211441 | 17 | 232 | 9.7 | 14.5 | 0.00 | 0.00 | 0.00 | 31 | 1049.3 |
| 20260503210936 | 17 | 164 | 6.4 | 6.4 | 0.00 | 0.00 | 0.00 | 33 | 1049.3 |
| 20260503210433 | 17 | 224 | 9.7 | 12.9 | 0.00 | 0.00 | 0.00 | 31 | 1049.3 |
| 20260503205928 | 17 | 224 | 9.7 | 14.5 | 0.00 | 0.00 | 0.00 | 32 | 1049.3 |
| 20260503205425 | 17 | 153 | 6.4 | 22.5 | 0.00 | 0.00 | 0.00 | 35 | 1049.4 |
| 20260503204921 | 17 | 278 | 4.8 | 11.3 | 0.00 | 0.00 | 0.00 | 33 | 1049.6 |
| 20260503204419 | 17 | 269 | 8.0 | 14.5 | 0.00 | 0.00 | 0.00 | 31 | 1049.4 |
| 20260503203916 | 17 | 209 | 6.4 | 11.3 | 0.00 | 0.00 | 0.00 | 32 | 1049.6 |
| 20260503203413 | 17 | 205 | 4.8 | 12.9 | 0.00 | 0.00 | 0.00 | 36 | 1049.7 |
| 20260503202910 | 17 | 113 | 8.0 | 17.7 | 0.00 | 0.00 | 0.00 | 31 | 1049.9 |
| 20260503202408 | 16 | 247 | 8.0 | 16.1 | 0.00 | 0.00 | 0.00 | 33 | 1050.0 |
| 20260503201906 | 16 | 205 | 9.7 | 16.1 | 0.00 | 0.00 | 0.00 | 32 | 1050.3 |
| 20260503201403 | 16 | 270 | 14.5 | 20.9 | 0.00 | 0.00 | 0.00 | 32 | 1050.1 |
| 20260503200900 | 17 | 301 | 9.7 | 16.1 | 0.00 | 0.00 | 0.00 | 30 | 1050.2 |
| 20260503200356 | 16 | 198 | 3.2 | 9.7 | 0.00 | 0.00 | 0.00 | 37 | 1050.4 |
| 20260503195853 | 16 | 191 | 11.3 | 16.1 | 0.00 | 0.00 | 0.00 | 31 | 1050.9 |
| 20260503195349 | 17 | 182 | 9.7 | 16.1 | 0.00 | 0.00 | 0.00 | 30 | 1050.7 |
| 20260503194847 | 17 | 238 | 9.7 | 17.7 | 0.00 | 0.00 | 0.00 | 32 | 1050.8 |
| 20260503194343 | 17 | 240 | 4.8 | 12.9 | 0.00 | 0.00 | 0.00 | 30 | 1050.8 |
| 20260503193839 | 17 | 269 | 6.4 | 11.3 | 0.00 | 0.00 | 0.00 | 37 | 1051.2 |
| 20260503193335 | 16 | 214 | 4.8 | 11.3 | 0.00 | 0.00 | 0.00 | 37 | 1051.1 |
| 20260503192831 | 16 | 203 | 9.7 | 14.5 | 0.00 | 0.00 | 0.00 | 34 | 1051.4 |
| 20260503192327 | 16 | 226 | 4.8 | 16.1 | 0.00 | 0.00 | 0.00 | 36 | 1051.2 |
| 20260503191823 | 16 | 162 | 4.8 | 16.1 | 0.00 | 0.00 | 0.00 | 38 | 1051.4 |
| 20260503191320 | 16 | 211 | 3.2 | 16.1 | 0.00 | 0.00 | 0.00 | 36 | 1051.4 |
| 20260503190817 | 16 | 167 | 4.8 | 6.4 | 0.00 | 0.00 | 0.00 | 37 | 1051.5 |
| 20260503190314 | 16 | 209 | 4.8 | 17.7 | 0.00 | 0.00 | 0.00 | 37 | 1051.3 |
| 20260503185811 | 16 | 211 | 16.1 | 17.7 | 0.00 | 0.00 | 0.00 | 33 | 1051.5 |
| 20260503185307 | 16 | 232 | 4.8 | 9.7 | 0.00 | 0.00 | 0.00 | 35 | 1051.5 |
| 20260503184807 | 16 | 248 | 3.2 | 6.4 | 0.00 | 0.00 | 0.00 | 41 | 1051.8 |
| 20260503184304 | 15 | 149 | 6.4 | 14.5 | 0.00 | 0.00 | 0.00 | 37 | 1051.7 |
| 20260503183759 | 15 | 161 | 14.5 | 17.7 | 0.00 | 0.00 | 0.00 | 36 | 1051.8 |
| 20260503183257 | 15 | 209 | 17.7 | 22.5 | 0.00 | 0.00 | 0.00 | 32 | 1051.9 |
| 20260503182755 | 15 | 178 | 11.3 | 12.9 | 0.00 | 0.00 | 0.00 | 35 | 1052.0 |
| 20260503182253 | 15 | 210 | 8.0 | 12.9 | 0.00 | 0.00 | 0.00 | 32 | 1051.9 |
| 20260503181750 | 15 | 190 | 9.7 | 12.9 | 0.00 | 0.00 | 0.00 | 34 | 1051.9 |
| 20260503181247 | 15 | 214 | 6.4 | 9.7 | 0.00 | 0.00 | 0.00 | 36 | 1052.2 |
| 20260503180743 | 15 | 162 | 12.9 | 16.1 | 0.00 | 0.00 | 0.00 | 34 | 1052.2 |
| 20260503180242 | 15 | 214 | 9.7 | 16.1 | 0.00 | 0.00 | 0.00 | 34 | 1052.1 |
| 20260503175738 | 15 | 190 | 4.8 | 9.7 | 0.00 | 0.00 | 0.00 | 37 | 1052.3 |
| 20260503175236 | 15 | 189 | 12.9 | 17.7 | 0.00 | 0.00 | 0.00 | 32 | 1052.4 |
| 20260503174732 | 15 | 215 | 4.8 | 14.5 | 0.00 | 0.00 | 0.00 | 39 | 1052.7 |
| 20260503174230 | 15 | 202 | 6.4 | 17.7 | 0.00 | 0.00 | 0.00 | 37 | 1052.8 |
| 20260503173730 | 15 | 223 | 6.4 | 11.3 | 0.00 | 0.00 | 0.00 | 36 | 1052.6 |
| 20260503173226 | 15 | 199 | 8.0 | 11.3 | 0.00 | 0.00 | 0.00 | 37 | 1052.8 |
| 20260503172724 | 15 | 139 | 6.4 | 12.9 | 0.00 | 0.00 | 0.00 | 43 | 1052.7 |
| 20260503172220 | 15 | 184 | 9.7 | 16.1 | 0.00 | 0.00 | 0.00 | 33 | 1052.8 |
| 20260503171717 | 15 | 169 | 6.4 | 17.7 | 0.00 | 0.00 | 0.00 | 36 | 1052.9 |
| 20260503171214 | 15 | 175 | 9.7 | 12.9 | 0.00 | 0.00 | 0.00 | 33 | 1053.2 |
| 20260503170711 | 15 | 216 | 9.7 | 14.5 | 0.00 | 0.00 | 0.00 | 35 | 1053.2 |
| 20260503170208 | 15 | 153 | 1.6 | 4.8 | 0.00 | 0.00 | 0.00 | 35 | 1053.3 |
| 20260503160130 | 13 | 203 | 3.2 | 4.8 | 0.00 | 0.00 | 0.00 | 34 | 1054.0 |
| 20260503150559 | 13 | 244 | 3.2 | 6.4 | 0.00 | 0.00 | 0.00 | 36 | 1054.2 |
| 20260503130949 | 7 | 173 | 6.4 | 9.7 | 0.00 | 0.00 | 0.00 | 68 | 1054.2 |
| 20260503130447 | 7 | 212 | 3.2 | 4.8 | 0.00 | 0.00 | 0.00 | 71 | 1054.3 |
| 20260503110343 | 0 | 28 | 0.0 | 0.0 | 0.00 | 0.00 | 0.00 | 97 | 1053.4 |
| 20260503090235 | 0 | 28 | 0.0 | 0.0 | 0.00 | 0.00 | 0.00 | 96 | 1053.2 |
| 20260503081202 | 0 | 28 | 0.0 | 0.0 | 0.00 | 0.00 | 0.00 | 94 | 1052.8 |
| 20260503080657 | 0 | 28 | 0.0 | 0.0 | 0.00 | 0.00 | 0.00 | 94 | 1052.7 |
| 20260503080155 | 0 | 28 | 0.0 | 0.0 | 0.00 | 0.00 | 0.00 | 94 | 1052.7 |
| 20260503072632 | 0 | 28 | 0.0 | 0.0 | 0.00 | 0.00 | 0.00 | 93 | 1052.5 |
| 20260503072128 | 0 | 28 | 0.0 | 0.0 | 0.00 | 0.00 | 0.00 | 93 | 1052.5 |
| 20260503071625 | 0 | 28 | 0.0 | 0.0 | 0.00 | 0.00 | 0.00 | 93 | 1052.4 |
| 20260503071122 | 0 | 28 | 0.0 | 0.0 | 0.00 | 0.00 | 0.00 | 92 | 1052.6 |
| 20260503070619 | 0 | 28 | 1.6 | 1.6 | 0.00 | 0.00 | 0.00 | 92 | 1052.5 |
| 20260503070117 | 0 | 28 | 0.0 | 0.0 | 0.00 | 0.00 | 0.00 | 92 | 1052.7 |
| 20260503055037 | 1 | 28 | 0.0 | 0.0 | 0.00 | 0.00 | 0.00 | 87 | 1052.9 |
| 20260503054533 | 1 | 28 | 0.0 | 0.0 | 0.00 | 0.00 | 0.00 | 87 | 1052.6 |
| 20260503054031 | 1 | 28 | 0.0 | 0.0 | 0.00 | 0.00 | 0.00 | 87 | 1052.7 |
| 20260503053529 | 2 | 28 | 0.0 | 0.0 | 0.00 | 0.00 | 0.00 | 85 | 1052.5 |
| 20260503053026 | 2 | 28 | 0.0 | 0.0 | 0.00 | 0.00 | 0.00 | 84 | 1052.7 |
| 20260503052523 | 2 | 28 | 0.0 | 0.0 | 0.00 | 0.00 | 0.00 | 83 | 1052.8 |
| 20260503052019 | 2 | 28 | 0.0 | 0.0 | 0.00 | 0.00 | 0.00 | 82 | 1052.9 |
| 20260503051515 | 2 | 28 | 0.0 | 0.0 | 0.00 | 0.00 | 0.00 | 82 | 1052.9 |
| 20260503051013 | 2 | 28 | 0.0 | 0.0 | 0.00 | 0.00 | 0.00 | 80 | 1052.8 |
| 20260503050508 | 2 | 28 | 0.0 | 0.0 | 0.00 | 0.00 | 0.00 | 80 | 1052.7 |
| 20260503050006 | 3 | 28 | 0.0 | 0.0 | 0.00 | 0.00 | 0.00 | 77 | 1053.0 |
| 20260503045503 | 3 | 28 | 0.0 | 0.0 | 0.00 | 0.00 | 0.00 | 77 | 1052.8 |
| 20260503045000 | 3 | 28 | 0.0 | 0.0 | 0.00 | 0.00 | 0.00 | 74 | 1052.9 |
| 20260503044457 | 4 | 28 | 0.0 | 0.0 | 0.00 | 0.00 | 0.00 | 73 | 1052.7 |
| 20260503043954 | 4 | 28 | 0.0 | 0.0 | 0.00 | 0.00 | 0.00 | 72 | 1052.9 |
| 20260503043450 | 5 | 28 | 0.0 | 0.0 | 0.00 | 0.00 | 0.00 | 67 | 1052.8 |
| 20260503042947 | 5 | 28 | 0.0 | 1.6 | 0.00 | 0.00 | 0.00 | 66 | 1052.9 |
| 20260503042443 | 5 | 28 | 0.0 | 1.6 | 0.00 | 0.00 | 0.00 | 65 | 1052.7 |
| 20260503041940 | 5 | 28 | 1.6 | 3.2 | 0.00 | 0.00 | 0.00 | 63 | 1052.6 |
| 20260503041437 | 6 | 33 | 3.2 | 3.2 | 0.00 | 0.00 | 0.00 | 62 | 1052.9 |
| 20260503040934 | 6 | 35 | 3.2 | 3.2 | 0.00 | 0.00 | 0.00 | 62 | 1052.8 |
| 20260503040432 | 6 | 35 | 1.6 | 1.6 | 0.00 | 0.00 | 0.00 | 61 | 1052.5 |
| 20260503035929 | 6 | 35 | 3.2 | 3.2 | 0.00 | 0.00 | 0.00 | 60 | 1052.4 |
| 20260503035425 | 6 | 31 | 3.2 | 4.8 | 0.00 | 0.00 | 0.00 | 60 | 1052.6 |
| 20260503034923 | 6 | 31 | 3.2 | 3.2 | 0.00 | 0.00 | 0.00 | 60 | 1052.5 |
| 20260503034421 | 6 | 31 | 3.2 | 4.8 | 0.00 | 0.00 | 0.00 | 60 | 1052.7 |
| 20260503033917 | 6 | 22 | 3.2 | 3.2 | 0.00 | 0.00 | 0.00 | 61 | 1052.5 |
| 20260503033415 | 6 | 36 | 3.2 | 4.8 | 0.00 | 0.00 | 0.00 | 61 | 1052.4 |
| 20260503032913 | 6 | 33 | 3.2 | 3.2 | 0.00 | 0.00 | 0.00 | 61 | 1052.7 |
| 20260503032411 | 6 | 44 | 3.2 | 4.8 | 0.00 | 0.00 | 0.00 | 62 | 1052.4 |
| 20260503031909 | 5 | 28 | 3.2 | 3.2 | 0.00 | 0.00 | 0.00 | 65 | 1052.4 |
| 20260503031406 | 6 | 26 | 1.6 | 1.6 | 0.00 | 0.00 | 0.00 | 68 | 1052.4 |
| 20260503030902 | 6 | 32 | 0.0 | 0.0 | 0.00 | 0.00 | 0.00 | 65 | 1052.6 |
| 20260503030359 | 6 | 32 | 0.0 | 1.6 | 0.00 | 0.00 | 0.00 | 64 | 1052.4 |
| 20260503025855 | 6 | 18 | 1.6 | 1.6 | 0.00 | 0.00 | 0.00 | 63 | 1052.4 |
| 20260503025353 | 5 | 345 | 1.6 | 1.6 | 0.00 | 0.00 | 0.00 | 67 | 1052.7 |